Stations météo

réclame
Mon MeteoGroup
Amsterdam Airport, Pays-Bas (6240): Température de l'air & dewpoint: 13.03.2019 03:00:00 - 19.03.2019 03:00:00 (CET)Amsterdam Airport, Pays-Bas (6240): Température de l'air 5cm: 13.03.2019 03:00:00 - 19.03.2019 03:00:00 (CET)Amsterdam Airport, Pays-Bas (6240): Vitesse du vent & gusts: 13.03.2019 03:00:00 - 19.03.2019 03:00:00 (CET)Amsterdam Airport, Pays-Bas (6240): Direction du vent: 13.03.2019 03:00:00 - 19.03.2019 03:00:00 (CET)Amsterdam Airport, Pays-Bas (6240): reduced air pressure: 13.03.2019 03:00:00 - 19.03.2019 03:00:00 (CET)Amsterdam Airport, Pays-Bas (6240): visibility: 13.03.2019 03:00:00 - 19.03.2019 03:00:00 (CET)Amsterdam Airport, Pays-Bas (6240): Quantités de précipitations: 13.03.2019 03:00:00 - 19.03.2019 03:00:00 (CET)
Date & Time tt [°C] td [°C] tt 5cm [°C] ff [km/h] ff [knt] fx [km/h] fx [knt] dd ppp [hPa] vv [km] rr [mm]
19.03.2019 03:00:00 -0,8 -1,3 -5,3 4 2 7 4 SE 1025,1 10 0,0
19.03.2019 02:00:00 -0,5 -1,2 -5,2 5 3 7 4 SSW 1025,0 10 0,0
19.03.2019 01:00:00 0,0 -1,1 -4,4 2 1 7 4 - 1024,7 10 0,0
19.03.2019 00:00:00 1,2 -0,2 -4,0 4 2 7 4 S 1024,5 10 0,0
18.03.2019 23:00:00 2,0 0,1 -3,3 5 3 7 4 W 1024,1 10 0,0
18.03.2019 22:00:00 3,1 0,7 -2,5 4 2 14 8 - 1023,8 10 0,0
18.03.2019 21:00:00 2,6 -0,4 -1,0 9 5 14 8 WNW 1023,2 10 0,0
18.03.2019 20:00:00 4,2 1,4 1,6 11 6 25 14 WNW 1022,6 10 0,0
18.03.2019 19:00:00 5,9 1,0 4,8 21 11 29 16 WNW 1021,8 10 0,0
18.03.2019 18:00:00 7,1 0,9 6,8 18 10 32 18 WNW 1021,1 10 0,0
18.03.2019 17:00:00 7,0 0,6 6,8 22 12 36 19 WNW 1020,6 10 0,0
18.03.2019 16:00:00 8,1 1,6 8,6 21 11 40 21 WNW 1020,1 10 0,0
18.03.2019 15:00:00 7,7 0,7 8,4 28 15 40 21 NW 1019,4 10 0,0
18.03.2019 14:00:00 9,0 2,1 - 31 17 47 25 WNW 1019,0 10 -
18.03.2019 13:00:00 7,2 2,0 7,5 22 12 40 21 NW 1018,7 7 0,0
18.03.2019 12:00:00 7,2 0,3 7,6 34 18 50 27 WNW 1018,2 10 0,0
18.03.2019 11:00:00 8,4 1,9 8,9 28 15 50 27 WNW 1017,1 10 0,0
18.03.2019 10:00:00 6,4 2,4 6,7 24 13 40 21 WNW 1016,3 8 0,0
18.03.2019 09:00:00 5,9 2,5 4,1 16 9 58 31 WNW 1015,6 10 0,0
18.03.2019 08:00:00 6,2 2,0 4,7 21 11 32 18 WNW 1014,6 10 0,0
18.03.2019 07:00:00 4,0 1,5 2,0 16 9 29 16 W 1013,9 10 0,0
18.03.2019 06:00:00 4,4 1,3 3,5 28 15 43 23 NW 1013,1 7 0,1
18.03.2019 05:00:00 4,9 2,0 3,3 18 10 40 21 WNW 1012,2 10 0,2
18.03.2019 04:00:00 5,4 2,3 3,9 18 10 36 19 WNW 1011,4 10 0,0
18.03.2019 03:00:00 4,5 2,8 3,2 18 10 32 18 W 1010,7 10 0,0
18.03.2019 02:00:00 5,4 2,6 4,5 26 14 36 19 W 1010,1 10 0,0
18.03.2019 01:00:00 5,0 3,2 4,1 29 16 54 29 W 1009,3 10 0,8
18.03.2019 00:00:00 7,0 3,3 5,9 28 15 40 21 WSW 1008,6 10 0,0
17.03.2019 23:00:00 6,0 2,7 5,0 26 14 36 19 WSW 1008,3 10 0,0
17.03.2019 22:00:00 5,9 2,1 5,0 24 13 36 19 WSW 1008,0 10 0,0
17.03.2019 21:00:00 6,0 1,4 4,7 21 11 36 19 WSW 1007,3 10 0,0
17.03.2019 20:00:00 6,0 0,6 5,0 26 14 40 21 W 1006,8 10 0,0
17.03.2019 19:00:00 6,5 0,8 5,5 26 14 43 23 W 1006,0 10 0,0
17.03.2019 18:00:00 7,1 0,9 6,4 34 18 50 27 W 1005,3 10 0,0
17.03.2019 17:00:00 8,0 1,5 8,1 41 22 54 29 W 1004,5 10 0,0
17.03.2019 16:00:00 7,8 1,4 8,5 39 21 58 31 W 1004,0 10 0,0
17.03.2019 15:00:00 8,2 1,9 7,4 46 25 61 33 W 1003,5 10 0,0
17.03.2019 14:00:00 8,0 2,0 8,3 42 23 58 31 W 1002,8 10 0,0
17.03.2019 13:00:00 8,3 3,4 7,6 41 22 61 33 W 1002,3 10 0,0
17.03.2019 12:00:00 8,4 3,8 7,4 37 20 54 29 W 1001,2 10 0,0
17.03.2019 11:00:00 7,5 3,4 7,3 39 21 54 29 W 1000,3 10 0,1
17.03.2019 10:00:00 7,0 4,0 7,1 22 12 47 25 WSW 999,3 10 0,2
17.03.2019 09:00:00 6,1 4,6 5,9 21 11 50 27 W 998,4 10 1,0
17.03.2019 08:00:00 5,0 3,5 5,0 29 16 43 23 W 997,8 6 0,2
17.03.2019 07:00:00 6,0 3,9 5,0 26 14 32 18 W 996,6 10 0,0
17.03.2019 06:00:00 5,7 3,4 5,1 16 9 25 14 WSW 995,9 10 0,0
17.03.2019 05:00:00 5,6 3,9 5,1 24 13 43 23 W 995,2 10 0,4
17.03.2019 04:00:00 8,2 7,1 7,9 42 23 61 33 SW 994,3 6 1,2
17.03.2019 03:00:00 8,5 7,3 8,0 42 23 65 35 SSW 993,9 7 0,9
17.03.2019 02:00:00 8,9 7,0 8,5 44 24 72 39 SSW 995,0 7 0,0
17.03.2019 01:00:00 10,0 6,0 9,2 50 27 76 41 SW 995,7 10 0,0
17.03.2019 00:00:00 10,9 5,0 10,3 46 25 76 41 SW 996,6 10 0,0
16.03.2019 23:00:00 10,9 5,0 10,1 42 23 68 37 SW 997,4 10 0,0
16.03.2019 22:00:00 10,4 6,2 9,9 54 29 76 41 SW 997,6 10 0,0
16.03.2019 21:00:00 10,5 6,2 10,0 59 32 79 43 SW 999,0 10 0,0
16.03.2019 20:00:00 10,5 6,1 9,9 55 30 76 41 SW 999,6 10 0,0
16.03.2019 19:00:00 10,5 5,4 9,8 57 31 90 49 SW 999,9 10 0,0
16.03.2019 18:00:00 10,6 5,9 10,1 59 32 90 49 SW 1000,1 10 0,0
16.03.2019 17:00:00 10,7 6,1 10,2 57 31 86 47 SW 1000,8 10 0,0
16.03.2019 16:00:00 10,7 6,7 10,4 55 30 86 47 SW 1001,6 10 0,0
16.03.2019 15:00:00 10,6 6,9 10,3 57 31 86 47 SW 1002,2 10 0,0
16.03.2019 14:00:00 10,9 7,3 10,8 61 33 86 47 SW 1002,6 10 0,0
16.03.2019 13:00:00 10,9 7,8 10,6 57 31 90 49 SW 1003,3 10 0,1
16.03.2019 12:00:00 10,2 8,2 9,7 54 29 79 43 SW 1003,5 9 0,5
16.03.2019 11:00:00 10,1 8,5 9,7 55 30 76 41 SW 1003,9 10 0,1
16.03.2019 10:00:00 10,1 8,6 9,8 52 28 72 39 SW 1004,4 10 0,2
16.03.2019 09:00:00 9,8 8,5 9,3 48 26 72 39 SW 1004,4 9 0,8
16.03.2019 08:00:00 9,2 8,7 8,2 28 15 43 23 SW 1004,9 4,0 2,1
16.03.2019 07:00:00 6,8 6,5 6,7 13 7 22 12 S 1006,3 6 1,2
16.03.2019 06:00:00 7,0 6,4 6,7 11 6 18 10 S 1006,8 10 0,4
16.03.2019 05:00:00 7,3 5,4 6,5 13 7 22 12 SW 1007,4 10 0,3
16.03.2019 04:00:00 8,1 4,7 7,2 9 5 18 10 W 1008,0 10 0,0
16.03.2019 03:00:00 8,0 4,5 7,1 15 8 29 16 W 1008,5 10 0,0
16.03.2019 02:00:00 8,1 4,1 7,1 18 10 29 16 W 1008,6 10 0,0
16.03.2019 01:00:00 8,6 3,0 7,6 26 14 36 19 WNW 1008,4 10 0,0
16.03.2019 00:00:00 8,3 3,9 7,6 26 14 43 23 W 1008,3 10 0,0
15.03.2019 23:00:00 8,0 4,7 6,9 22 12 36 19 W 1007,6 10 0,0
15.03.2019 22:00:00 7,9 4,3 6,9 28 15 50 27 W 1007,4 10 0,0
15.03.2019 21:00:00 9,2 2,6 7,7 35 19 50 27 WNW 1006,6 10 0,0
15.03.2019 20:00:00 9,3 2,7 7,6 35 19 50 27 WNW 1005,7 10 0,0
15.03.2019 19:00:00 8,4 4,2 7,2 24 13 36 19 W 1005,2 10 0,0
15.03.2019 18:00:00 9,2 5,3 8,4 24 13 40 21 W 1004,2 10 0,0
15.03.2019 17:00:00 10,1 5,8 9,8 28 15 47 25 W 1003,5 10 0,0
15.03.2019 16:00:00 11,1 8,7 11,0 34 18 50 27 W 1003,3 10 0,0
15.03.2019 15:00:00 10,6 9,2 10,4 42 23 65 35 W 1002,5 10 0,0
15.03.2019 14:00:00 10,8 9,6 10,6 44 24 76 41 WSW 1001,6 9 0,5
15.03.2019 13:00:00 12,2 9,4 12,3 52 28 76 41 WSW 1001,1 10 0,0
15.03.2019 12:00:00 11,3 9,1 10,9 48 26 72 39 WSW 1001,0 9 0,0
15.03.2019 11:00:00 11,6 9,0 11,2 48 26 76 41 WSW 1000,7 10 0,0
15.03.2019 10:00:00 11,0 9,3 10,6 48 26 68 37 WSW 1000,3 10 0,1
15.03.2019 09:00:00 9,9 9,4 8,9 31 17 61 33 WSW 999,9 5 0,6
15.03.2019 08:00:00 6,7 6,4 6,6 21 11 29 16 S 1000,7 3,3 0,5
15.03.2019 07:00:00 6,4 5,9 6,2 15 8 22 12 SSW 1001,7 4,6 0,7
15.03.2019 06:00:00 7,1 4,9 6,6 18 10 43 23 WSW 1002,4 10 0,0
15.03.2019 05:00:00 8,1 5,3 7,5 26 14 40 21 WSW 1003,3 10 0,0
15.03.2019 04:00:00 8,3 5,0 7,5 26 14 36 19 WSW 1003,5 10 0,0
15.03.2019 03:00:00 8,1 4,9 7,2 28 15 40 21 WSW 1004,4 10 0,0
15.03.2019 02:00:00 7,7 4,1 6,8 29 16 43 23 W 1004,9 10 0,0
15.03.2019 01:00:00 7,6 4,0 6,4 28 15 36 19 W 1004,9 10 0,0
15.03.2019 00:00:00 7,2 4,1 6,3 28 15 40 21 W 1004,8 10 0,0
14.03.2019 23:00:00 8,0 4,3 7,2 31 17 47 25 W 1004,6 10 0,0
14.03.2019 22:00:00 8,6 4,3 7,5 31 17 47 25 W 1003,9 10 0,0
14.03.2019 21:00:00 8,3 4,7 7,6 28 15 40 21 W 1003,2 10 0,0
14.03.2019 20:00:00 8,2 4,7 6,6 29 16 47 25 W 1002,1 10 0,0
14.03.2019 19:00:00 8,0 4,6 6,9 31 17 50 27 WNW 1000,9 10 0,0
14.03.2019 18:00:00 8,3 5,1 7,5 34 18 68 37 WNW 999,6 10 0,2
14.03.2019 17:00:00 8,5 5,6 7,8 39 21 72 39 WNW 998,2 9 0,0
14.03.2019 16:00:00 8,8 5,2 8,1 48 26 72 39 WNW 996,9 8 0,0
14.03.2019 15:00:00 10,5 5,7 10,8 50 27 72 39 WNW 995,0 10 0,0
14.03.2019 14:00:00 10,3 6,7 9,7 42 23 76 41 W 994,3 10 0,0
14.03.2019 13:00:00 10,3 7,7 10,3 57 31 86 47 WSW 993,2 10 0,0
14.03.2019 12:00:00 9,8 7,9 9,0 48 26 72 39 WSW 992,9 10 1,2
14.03.2019 11:00:00 8,2 7,1 7,8 46 25 68 37 SW 994,5 6 2,0
14.03.2019 10:00:00 7,8 6,4 7,1 37 20 58 31 SW 996,6 7 1,2
14.03.2019 09:00:00 7,0 5,8 6,5 31 17 61 33 WSW 998,7 7 1,2
14.03.2019 08:00:00 6,7 5,5 6,4 37 20 50 27 SW 1000,6 7 0,9
14.03.2019 07:00:00 6,7 5,5 6,3 34 18 50 27 WSW 1002,2 7 0,8
14.03.2019 06:00:00 7,0 5,3 6,5 31 17 47 25 WSW 1003,5 9 0,1
14.03.2019 05:00:00 7,5 4,1 6,9 34 18 47 25 WSW 1005,0 10 0,0
14.03.2019 04:00:00 7,4 3,8 6,8 31 17 47 25 WSW 1006,0 10 0,0
14.03.2019 03:00:00 7,4 3,5 6,8 29 16 47 25 WSW 1007,2 10 0,0
14.03.2019 02:00:00 7,2 3,4 6,7 29 16 43 23 W 1007,8 10 0,0
14.03.2019 01:00:00 7,3 3,7 6,7 34 18 47 25 W 1007,9 10 0,0
14.03.2019 00:00:00 7,6 4,3 7,1 31 17 50 27 W 1007,9 10 0,0
13.03.2019 23:00:00 7,9 4,8 7,3 31 17 47 25 W 1007,3 10 0,0
13.03.2019 22:00:00 7,7 4,6 6,9 35 19 50 27 W 1006,8 10 0,0
13.03.2019 21:00:00 6,9 4,4 5,8 24 13 36 19 W 1006,2 10 0,0
13.03.2019 20:00:00 7,3 3,3 6,1 26 14 43 23 W 1005,5 10 0,0
13.03.2019 19:00:00 7,7 3,9 6,6 35 19 54 29 W 1004,3 10 0,0
13.03.2019 18:00:00 8,6 3,4 7,8 42 23 61 33 W 1003,1 10 0,0
13.03.2019 17:00:00 9,0 4,7 8,4 42 23 65 35 W 1002,0 10 0,0
13.03.2019 16:00:00 9,0 5,2 8,5 46 25 68 37 W 1001,2 10 0,1
13.03.2019 15:00:00 9,1 5,1 8,9 41 22 61 33 W 1000,2 10 0,0
13.03.2019 14:00:00 8,8 5,2 8,3 46 25 72 39 W 999,7 10 0,1
13.03.2019 13:00:00 8,6 5,1 7,6 46 25 65 35 WSW 999,1 10 0,3
13.03.2019 12:00:00 7,7 4,9 6,7 44 24 68 37 WSW 998,4 10 1,3
13.03.2019 11:00:00 7,4 4,5 6,8 44 24 68 37 WSW 998,4 8 0,3
13.03.2019 10:00:00 7,7 3,8 7,3 48 26 68 37 SW 998,6 10 0,0
13.03.2019 09:00:00 7,6 3,7 6,7 44 24 72 39 WSW 998,4 10 0,1
13.03.2019 08:00:00 7,2 3,6 6,4 48 26 68 37 SW 998,3 10 0,0
13.03.2019 07:00:00 7,3 3,1 6,8 48 26 72 39 SW 998,8 10 0,0
13.03.2019 06:00:00 6,9 2,8 6,5 46 25 65 35 SW 999,0 10 0,0
13.03.2019 05:00:00 6,9 2,7 6,3 44 24 65 35 SW 999,1 10 0,0
13.03.2019 04:00:00 6,7 2,6 5,8 44 24 72 39 SW 999,3 10 0,0
13.03.2019 03:00:00 6,6 3,0 6,0 42 23 61 33 SW 1000,0 10 0,0

tt = Température de l'air
td = dewpoint
tt 5cm = Température de l'air 5cm
ff = Vitesse du vent
fx = gusts
dd = Direction du vent
ppp = reduced air pressure
vv = visibility
rr = Quantités de précipitations

stations d'obs. à proximité